www.pogodaiklimat.ru

Погода и климат >> Архив погоды >> Гана >> Saltpond


ПОГОДА в Saltpond

  • Прогноз погоды в Saltpond
  • Монитор погоды в Saltpond
  • Климат города

АРХИВ ПОГОДЫ в Saltpond

Время (UTC), дата Ветер
(напр.,м/с)
 
Видим.   Явления Облачность Т
(С)
Тd
(С)
f
(%)
Тe
(С)
Тes
(С)
Комфортность P
(гПа)
Po
(гПа)
Тmin
(С)
Tmax
(С)
R
(мм)
R24
(мм)
S
(см)
09 9.07 ЮЗ 1 18 км {дождь} 5/3 330 м
[Cu Sc Ac trans]
+26.5 +25.3 93 +38 +46 очень
душно
1016.3 1016.0
12 9.07 ЮЗ 2 20 км {дождь} 4/3 480 м
[Cu med, cong Ac trans]
+28.0 +26.0 89 +42 +56 опасность
перегрева
1015.0 1015.0 0.0
15 9.07 ЮЗ 1 20 км 4/3 480 м
[Cu med, cong Ac trans Ci sp]
+28.2 +25.9 87 +42 +50 опасность
перегрева
1012.7 1013.0
18 9.07 ЮЗ 1 18 км 4/1 330 м
[Cu Sc Ac trans Ci sp]
+26.3 +25.2 94 +38 +38 очень
душно
1013.6 1014.0 +28.3 0.0
00 10.07 штиль 0 18 км 8/8 330 м
[Sc]
+25.0 +24.6 98 +35 +35 очень
душно
1015.4 1015.0
03 10.07 штиль 0 18 км 8/8 330 м
[Sc]
+25.0 +24.6 98 +35 +35 очень
душно
1014.1 1014.0
06 10.07 штиль 0 18 км 6/4 330 м
[Sc Ac trans]
+25.0 +25.0 100 +36 +36 очень
душно
1015.1 1015.0 +24.2
09 10.07 ЮЗ 1 18 км 8/4 450 м
[Cu med, cong Cs]
+26.8 +25.0 90 +39 +45 очень
душно
1016.6 1017.0
12 10.07 ЮЗ 2 20 км 8/3 480 м
[Cu med, cong Cs]
+28.0 +25.6 87 +41 +54 опасность
перегрева
1016.2 1016.0
15 10.07 ЮЗ 2 20 км 1/1 480 м
[Cu med, cong Ci sp]
+28.0 +22.5 72 +37 +47 очень
душно
1013.5 1014.0
21 10.07 ЮЗ 1 16 км 6/3 330 м
[Sc Ci sp]
+25.6 +25.1 97 +37 +37 очень
душно
1015.8 1016.0
00 11.07 ЮЗ 2 16 км 6/6 330 м
[Sc]
+25.0 +24.7 98 +35 +35 очень
душно
1014.8 1015.0
03 11.07 ЮЗ 1 16 км 4/4 330 м
[Sc]
+24.5 +24.2 98 +34 +34 очень
душно
1013.9 1014.0
06 11.07 штиль 0 8000 м 4/1 330 м
[Sc Ci sp]
+24.1 +23.8 98 +33 +33 очень
душно
1014.9 1015.0 +23.8
12 11.07 ЮЗ 2 20 км 3/3 480 м
[Cu med, cong Ci sp]
+28.0 +25.2 85 +41 +55 опасность
перегрева
1015.5 1016.0
15 11.07 ЮЗ 3 20 км 5/3 480 м
[Cu med, cong Ci sp]
+27.0 +25.1 89 +39 +45 очень
душно
1013.5 1014.0
18 11.07 ЮЗ 2 18 км 4/1 330 м
[Cb calv Ci sp]
+26.0 +24.6 92 +37 +37 очень
душно
1013.5 1014.0 +28.5
21 11.07 ЮЗ 1 16 км 4/4 330 м
[Sc]
+25.2 +24.9 98 +36 +36 очень
душно
1015.6 1016.0
00 12.07 СЗ 2 16 км 5/5 330 м
[Sc]
+25.4 +24.6 95 +36 +36 очень
душно
1016.0 1016.0
03 12.07 ЮЗ 1 16 км 4/4 330 м
[Sc]
+24.6 +24.1 97 +34 +34 очень
душно
1014.4 1014.0
06 12.07 ЮЗ 1 16 км 9/0
[Ac trans Cs]
+24.6 +24.3 98 +34 +34 очень
душно
1015.1 1015.0 +24.0
21 12.07 ЮЗ 1 16 км 9/1 330 м
[Sc Ac trans Cs]
+24.5 +23.5 94 +33 +33 очень
душно
1015.7 1016.0
06 13.07 СЗ 1 16 км 9/0
[Ac trans Cs]
+23.7 +23.3 98 +32 +32 очень
душно
1015.1 1015.0 +23.4
09 13.07 ЮЗ 1 18 км 6/5 330 м
[Cu Sc Ac trans Ci sp]
+26.2 +24.6 91 +37 +42 очень
душно
1016.0 1016.0
12 13.07 ЮЗ 2 20 км 8/1 480 м
[Cu med, cong Ac trans]
+27.0 +25.0 89 +39 +49 очень
душно
1015.4 1015.0
15 13.07 ЮЗ 1 20 км 8/1 420 м
[Cu med, cong Ac trans]
+26.3 +24.5 90 +37 +43 очень
душно
1013.6 1014.0
18 13.07 ЮЗ 2 18 км 5/1 360 м
[Sc Ac trans Ci sp]
+25.5 +24.1 92 +35 +35 очень
душно
1012.9 1013.0 +27.5
12 14.07 ЮЗ 1 8000 м слабая морось 9/8 330 м
[St Ac trans]
+26.2 +25.1 94 +38 +41 очень
душно
1015.3 1015.0 0.0
15 14.07 ЮЗ 2 18 км {морось} 3/1 360 м
[Cu Sc Ac trans Ci sp]
+27.4 +25.1 87 +39 +49 очень
душно
1012.8 1013.0
18 14.07 ЮЗ 3 18 км {морось} 9/6 360 м
[Sc Ac As]
+25.5 +24.4 94 +36 +36 очень
душно
1012.9 1013.0 +27.6 0.0
21 14.07 ЮЗ 1 16 км 9/9 330 м
[Sc]
+25.0 +24.0 94 +34 +34 очень
душно
1014.9 1015.0
00 15.07 ЮЗ 2 16 км 9/9 330 м
[Sc]
+24.8 +23.7 94 +34 +34 очень
душно
1014.7 1015.0
06 15.07 ЮЗ 1 16 км 6/0
[Ac trans]
+24.2 +23.2 94 +32 +32 очень
душно
1013.6 1014.0 +23.7 0.0
09 15.07 ЮЗ 1 16 км 9/9 330 м
[Sc]
+25.5 +24.3 93 +35 +37 очень
душно
1014.9 1015.0
21 15.07 ЮЗ 1 16 км 9/8 330 м
[Sc Ac trans]
+25.1 +23.9 93 +34 +34 очень
душно
1014.7 1015.0
00 16.07 ЮЗ 2 14 км 8/6 330 м
[Sc Ac trans Ci sp]
+24.6 +23.9 96 +34 +34 очень
душно
1015.1 1015.0

 

Местоположение метеостанции Saltpond (Гана): широта 5.20 долгота -1.07 высота над уровнем моря 47 м.

В архиве по умолчанию представлена погода в Saltpond за последнюю неделю. Архивные данные за месяц целиком и за предыдущие месяцы, начиная с января 2011 года, Вы можете получить, выбрав интересующий диапазон дат из раскрывающегося списка и нажав кнопку "Ввод!".


*Определитесь, кто Вы:
робот инопланетянин человек

Внимание! Время в таблицах - всемирное. Для получения местного времени необходимо прибавить поправку, которая в Saltpond равна 1 ч.

Смотрите также архив погоды в соседних городах и на ближайших метеорологических станциях:

Погода в Akim Oda (Гана) (82 км)
Погода в Takoradi (Гана) (85 км)
Погода в Accra (Гана) (109 км)
Погода в Tema (Гана) (127 км)
Погода в Koforidua (Гана) (133 км)
Погода в Axim (Гана) (134 км)
Погода в Akuse (Гана) (165 км)
Погода в Abetifi (Гана) (167 км)
Погода в Sefwi Bekwai (Гана) (178 км)
Погода в Kumasi (Гана) (179 км)

Пояснения к столбцам:

Ветер - указаны скорость ветра в м/с - средняя за 10 мин, порывы в срок и между сроками (в фигурных скобках) и направление, откуда дует ветер: С - северный, СВ - северо-восточный, В - восточный, ЮВ - юго-восточный, Ю - южный, ЮЗ - юго-западный, З - западный, СЗ - северо-западный.
Видимость - горизонтальная дальность видимости в метрах или километрах. При видимости от 1 до 10 км при отсутствии осадков обычно наблюдается дымка, при ухудшении видимости до 1 км и менее - туман. В сухую погоду видимость может ухудшаться дымом, пылью или мглою.
Явления - указаны атмосферные явления, наблюдавшиеся в срок или в последний час перед сроком; фигурными скобками обозначены явления, наблюдавшиеся между сроками (за 1-3 часа до срока); квадратными скобками обозначены град или гололедные отложения с указанием их диаметра в мм.
Облачность - указаны через наклонную черту общая и нижняя облачность в баллах и высота нижней границы облаков в метрах; квадратными скобками обозначены формы облаков: Ci - перистые, Cs - перисто-слоистые, Cc - перисто-кучевые, Ac - высококучевые, As - высокослоистые, Sc - слоисто-кучевые, Ns - слоисто-дождевые, Cu - кучевые, Cb - кучево-дождевые. Подробнее классификацию облаков см. в Атласе облаков (PDF).
T - Температура воздуха - температура, измеренная на высоте 2 м над землей.
Td - Температура точки росы - температура, при понижении до которой содержащийся в воздухе водяной пар достигнет насыщения.
f - Относительная влажность воздуха - влажноcть воздуха, измеренная на высоте 2 м над землей.
Te - Эффективная температура - температура, которую ощущает одетый по сезону человек в тени. Характеристика душности погоды. При расчете учитывается влияние влажности воздуха и скорости ветра на теплоощущения человека.
Tes - Эффективная температура на солнце - температура, которую ощущает человек, с поправкой на солнечный нагрев. Характеристика знойности погоды. Зависит от высоты солнца над горизонтом, облачности и скорости ветра. Ночью, в пасмурную погоду, а также при ветре 12 м/с и более поправка равна нулю.
P - Атмосферное давление - приведенное к уровню моря атмосферное давление.
Po - Атмосферное давление - измеренное на уровне метеостанции атмосферное давление.
Tmin - Минимальная температура - минимум температуры воздуха на высоте 2 м над землей.
Tmax - Максимальная температура - максимум температуры воздуха на высоте 2 м над землей.
R - Количество осадков - Количество выпавших осадков за период времени, мм. При наведении курсора мыши на число - период времени, за который выпало указанное количество осадков.
R24 - Количество осадков - Количество выпавших осадков за 24 часа, мм.
S - Снежный покров - Высота снежного покрова, см. При наведении курсора мыши на число - состояние снежного покрова и степень покрытия местности в баллах.